This is the latest recevied weather packets stored in our database for station/object YD1OCG-15. If no packets are shown the sender has not sent any weather packets the latest 10 day(s).
| Time | Temp. | Humidity | Pressure | Rain* | Wind** | Luminosity | Snow |
|---|---|---|---|---|---|---|---|
| 1788169403 | 28.89° C | 10% | - | - | - | - | - |
| 1788167603 | 30° C | 65% | 1011 hPa | - | - | - | - |
| 1788165804 | 30° C | 69% | 1011 hPa | - | - | - | - |
| 1788164004 | 31.11° C | 66% | 1011 hPa | - | - | - | - |
| 1788162204 | 31.11° C | 66% | 1011 hPa | - | - | - | - |
| 1788160409 | 32.78° C | 10% | - | - | - | - | - |
| 1788158603 | 31.11° C | 66% | 1012 hPa | - | - | - | - |
| 1788156804 | 31.11° C | 65% | 1013 hPa | - | - | - | - |
| 1788155004 | 32.22° C | 10% | - | - | - | - | - |
| 1788153203 | 30.56° C | 63% | 1014 hPa | - | - | - | - |
| 1788151403 | 31.67° C | 10% | - | - | - | - | - |
| 1788149603 | 29.44° C | 65% | 1015 hPa | - | - | - | - |
| 1788147804 | 31.11° C | 10% | - | - | - | - | - |
| 1788146003 | 28.89° C | 72% | 1016 hPa | - | - | - | - |
| 1788144203 | 28.89° C | 89% | 1016 hPa | - | - | - | - |
| 1788123385 | 26.67° C | 81% | 1015 hPa | - | - | - | - |
| 1788121585 | 26.11° C | 78% | 1014 hPa | - | - | - | - |
| 1788119785 | 26.67° C | 81% | 1015 hPa | - | - | - | - |
| 1788117984 | 26.11° C | 80% | 1014 hPa | - | - | - | - |
| 1788116185 | 26.67° C | 82% | 1015 hPa | - | - | - | - |
| 1788114385 | 27.22° C | 83% | 1015 hPa | - | - | - | - |
| 1788112584 | 27.22° C | 83% | 1015 hPa | - | - | - | - |
| 1788110784 | 27.22° C | 76% | 1015 hPa | - | - | - | - |
| 1788108984 | 27.78° C | 78% | 1016 hPa | - | - | - | - |
| 1788107185 | 27.22° C | 72% | 1015 hPa | - | - | - | - |
* Rain since midnight (hover to see other rain measurements)
** Current wind speed in m/s (hover to see current wind gust speed)